Flag Weather past 2 weeks in Bridgetown, Barbados

Now
79 °F

Scattered showers. Partly sunny.


Feels Like: 83 °F
Forecast: 79 / 85 °F
Wind: 20 mph from East

Location: Grantley Adams

Current Time: Nov 22, 2014 at 6:38:00 AM

Latest Report: Nov 22, 2014 at 6:00 AM


Visibility: 6 mi

Pressure: 29.92 "Hg

Humidity: 94%

Dew point: 77 °F

Location of BridgetownLocation

Historic Weather in Bridgetown — Graph

°F

Bridgetown temperature yesterday

Maximum temperature yesterday: 81 °F (at 5:00 PM)
Minimum temperature yesterday: 73 °F (at 12:00 AM)
Average temperature yesterday: 78 °F

Past Weeks' High & Low Weather Summary

 TemperatureHumidityPressure
High88 °F (Nov 7, 11:00 AM)100% (Nov 8, 5:00 PM)30.01 "Hg (Nov 8, 5:00 PM)
Low72 °F (Nov 22, 2:00 AM)66% (Nov 10, 3:00 PM)29.80 "Hg (Nov 11, 2:00 PM)
Average81 °F82%29.89 "Hg
* Reported Nov 7 5:00 AM — Nov 22 5:00 AM, Bridgetown, Weather by CustomWeather, © 2014

Note: Actual official high and low records may vary slightly from our data, if they occured in-between our weather recording intervals... More about our weather records

Advertising

Bridgetown weather history for previous 24 hours

 ConditionsComfort  
Time TempWeatherWind HumidityBarometerVisibility
5:00 AM
Nov 22
79 °FPartly cloudy.20 mph94%29.89 "Hg6 mi
4:00 AM79 °FPartly cloudy.16 mph89%29.86 "Hg6 mi
3:00 AM75 °FLight rain. Partly cloudy.8 mph94%29.89 "Hg4 mi
2:00 AM72 °FHeavy rain. Passing clouds.29 mph94%29.92 "Hg3 mi
1:00 AM79 °FPassing clouds.18 mph89%29.92 "HgN/A
12:00 AM81 °FPassing clouds.17 mph84%29.95 "HgN/A
11:00 PM
Nov 21
81 °FLight rain. Partly cloudy.20 mph89%29.92 "Hg4 mi
10:00 PM81 °FLight rain. Partly cloudy.15 mph89%29.92 "Hg4 mi
9:00 PM81 °FLight rain. Passing clouds.20 mph84%29.92 "Hg5 mi
8:00 PM81 °FLight rain. Passing clouds.23 mph84%29.89 "Hg5 mi
7:00 PM81 °FSprinkles. Partly cloudy.22 mph84%29.86 "Hg5 mi
6:00 PM81 °FPassing clouds.20 mph89%29.86 "Hg5 mi
5:00 PM81 °FPartly sunny.17 mph89%29.89 "Hg5 mi
4:00 PM79 °FPartly sunny.14 mph89%29.89 "Hg5 mi
3:00 PM79 °FLight rain. Broken clouds.10 mph94%29.89 "Hg5 mi
2:00 PM75 °FRain. More clouds than sun.9 mph89%29.92 "Hg2 mi
1:00 PM79 °FRain. More clouds than sun.12 mph94%29.92 "Hg2 mi
12:00 PM77 °FRain. Mostly cloudy.12 mph100%29.98 "Hg2 mi
11:00 AM77 °FRain showers. Mostly cloudy.15 mph94%29.98 "Hg2 mi
10:00 AM77 °FRain. Mostly cloudy.13 mph100%29.98 "Hg3 mi
9:00 AM77 °FRain. Mostly cloudy.3 mph94%29.95 "Hg2 mi
8:00 AM77 °FRain. Mostly cloudy.13 mph94%29.95 "Hg1 mi
7:00 AM79 °FRain. Mostly cloudy.16 mph89%29.92 "Hg4 mi
6:00 AM79 °FRain. Mostly cloudy.20 mph89%29.89 "Hg4 mi
Weather by CustomWeather, © 2014

See weather overviewHow to use our weather pages